QPF
0.00 0.00 0.00 0.00 0.00 0.00 0.00 0.00 0.00 0.00 0.00 0.00 0.00 0.00 0.00 0.00 0.00 0.00 0.00 0.00 0.00 0.00 0.00 0.00 0.00 0.00 0.00 0.00 0.00 0.00 0.00 0.00 0.00 0.00 0.00 0.00 0.00 0.00 0.00 0.00 0.00 0.00 0.00 0.01 0.04
0.00 0.00 0.00 0.00 0.00 0.00 0.00 0.00 0.00 0.00 0.00 0.00 0.00 0.00 0.00 0.00 0.00 0.00 0.00 0.00 0.00 0.00 0.00 0.00 0.00 0.00 0.00 0.00 0.00 0.00 0.00 0.00 0.00 0.00 0.00 0.00 0.00 0.00 0.00 0.00 0.00 0.00 0.00 0.00 0.00
0.00 0.00 0.00 0.00 0.00 0.00 0.00 0.00 0.00 0.00 0.00 0.00 0.00 0.00 0.00 0.00 0.00 0.00 0.00 0.00 0.00 0.00 0.00 0.00 0.00 0.00 0.00 0.00 0.00 0.00 0.00 0.00 0.00 0.00 0.00 0.00 0.00 0.00 0.00 0.00 0.00 0.00 0.00 0.00 0.03
0.00 0.00 0.00 0.00 0.00 0.00 0.00 0.00 0.00 0.00 0.00 0.00 0.00 0.00 0.00 0.00 0.00 0.00 0.00 0.00 0.00 0.00 0.00 0.00 0.00 0.00 0.00 0.00 0.00 0.00 0.00 0.00 0.00 0.00 0.00 0.00 0.00 0.00 0.00 0.00 0.00 0.00 0.00 0.00 0.02
0.00 0.00 0.00 0.00 0.00 0.00 0.00 0.00 0.00 0.00 0.00 0.00 0.00 0.00 0.00 0.00 0.00 0.00 0.00 0.00 0.00 0.00 0.00 0.00 0.00 0.00 0.00 0.00 0.00 0.00 0.00 0.00 0.00 0.00 0.00 0.00 0.00 0.00 0.00 0.00 0.00 0.00 0.00 0.00 0.00
0.00 0.00 0.00 0.00 0.00 0.00 0.00 0.00 0.00 0.00 0.00 0.00 0.00 0.00 0.00 0.00 0.00 0.00 0.00 0.00 0.00 0.00 0.00 0.00 0.00 0.00 0.00 0.00 0.00 0.00 0.00 0.00 0.00 0.00 0.00 0.00 0.00 0.00 0.00 0.00 0.00 0.00 0.00 0.00 0.00
0.00 0.00 0.00 0.00 0.00 0.00 0.00 0.00 0.00 0.00 0.00 0.00 0.00 0.01 0.00 0.00 0.00 0.00 0.00 0.00 0.00 0.00 0.00 0.00 0.00 0.00 0.00 0.00 0.00 0.00 0.00 0.00 0.00 0.00 0.00 0.00 0.00 0.00 0.00 0.00 0.00 0.00 0.00 0.00 0.00
0.00 0.00 0.00 0.00 0.00 0.00 0.00 0.00 0.00 0.00 0.00 0.01 0.01 0.01 0.00 0.00 0.00 0.00 0.00 0.00 0.00 0.00 0.00 0.00 0.00 0.00 0.00 0.00 0.00 0.00 0.00 0.00 0.00 0.00 0.00 0.00 0.00 0.00 0.00 0.00 0.00 0.00 0.00 0.00 0.00
0.00 0.00 0.00 0.00 0.00 0.00 0.00 0.00 0.00 0.00 0.00 0.00 0.00 0.00 0.00 0.00 0.00 0.00 0.00 0.00 0.00 0.00 0.00 0.00 0.00 0.00 0.00 0.00 0.00 0.00 0.00 0.00 0.00 0.00 0.00 0.00 0.00 0.00 0.00 0.00 0.00 0.00 0.00 0.00 0.00
0.00 0.00 0.00 0.00 0.00 0.00 0.00 0.00 0.00 0.00 0.00 0.00 0.00 0.00 0.00 0.00 0.00 0.00 0.00 0.00 0.00 0.00 0.00 0.00 0.00 0.00 0.00 0.00 0.00 0.00 0.00 0.00 0.00 0.00 0.00 0.00 0.00 0.00 0.00 0.00 0.00 0.00 0.00 0.00 0.00
0.00 0.00 0.00 0.00 0.00 0.00 0.00 0.00 0.00 0.00 0.00 0.00 0.00 0.00 0.00 0.00 0.00 0.00 0.00 0.00 0.00 0.00 0.00 0.00 0.00 0.00 0.00 0.00 0.00 0.00 0.00 0.00 0.00 0.00 0.00 0.00 0.00 0.00 0.00 0.00 0.00 0.00 0.00 0.00 0.00
0.00 0.00 0.00 0.00 0.00 0.00 0.00 0.00 0.00 0.00 0.00 0.00 0.00 0.00 0.00 0.00 0.00 0.00 0.00 0.00 0.00 0.00 0.00 0.00 0.00 0.00 0.00 0.00 0.00 0.00 0.00 0.00 0.00 0.00 0.00 0.00 0.00 0.00 0.00 0.00 0.00 0.00 0.00 0.00 0.00
0.00 0.00 0.00 0.00 0.00 0.00 0.00 0.00 0.00 0.00 0.00 0.00 0.00 0.00 0.00 0.00 0.00 0.00 0.00 0.00 0.00 0.00 0.00 0.00 0.00 0.00 0.00 0.00 0.00 0.00 0.00 0.00 0.00 0.00 0.00 0.00 0.00 0.00 0.00 0.00 0.00 0.00 0.00 0.00 0.00
0.00 0.00 0.00 0.00 0.00 0.00 0.00 0.00 0.00 0.00 0.00 0.00 0.00 0.00 0.00 0.00 0.00 0.00 0.00 0.00 0.00 0.00 0.00 0.00 0.00 0.00 0.00 0.00 0.00 0.00 0.00 0.00 0.00 0.00 0.00 0.00 0.00 0.00 0.00 0.00 0.00 0.00 0.00 0.00 0.00
0.00 0.00 0.00 0.00 0.00 0.00 0.00 0.00 0.00 0.00 0.00 0.00 0.00 0.00 0.00 0.00 0.00 0.00 0.00 0.00 0.00 0.00 0.00 0.00 0.00 0.00 0.00 0.00 0.00 0.00 0.00 0.00 0.00 0.00 0.00 0.00 0.00 0.00 0.00 0.00 0.00 0.00 0.00 0.00 0.00
0.00 0.00 0.00 0.00 0.00 0.00 0.00 0.00 0.00 0.01 0.00 0.00 0.00 0.00 0.00 0.00 0.00 0.00 0.00 0.00 0.00 0.00 0.00 0.00 0.00 0.00 0.00 0.00 0.00 0.00 0.00 0.00 0.00 0.00 0.00 0.00 0.00 0.00 0.00 0.00 0.00 0.00 0.00 0.00 0.00
0.00 0.00 0.00 0.00 0.00 0.00 0.00 0.00 0.00 0.00 0.00 0.00 0.00 0.01 0.01 0.00 0.00 0.00 0.00 0.00 0.00 0.00 0.00 0.00 0.00 0.00 0.00 0.00 0.00 0.00 0.00 0.00 0.00 0.00 0.00 0.00 0.00 0.00 0.00 0.00 0.00 0.00 0.00 0.00 0.00
0.00 0.00 0.00 0.00 0.00 0.00 0.00 0.00 0.00 0.00 0.00 0.00 0.00 0.00 0.01 0.04 0.01 0.01 0.00 0.00 0.00 0.00 0.00 0.00 0.00 0.00 0.00 0.00 0.00 0.00 0.00 0.00 0.00 0.00 0.00 0.00 0.00 0.00 0.00 0.00 0.00 0.00 0.00 0.00 0.00
0.00 0.00 0.00 0.00 0.00 0.00 0.00 0.00 0.00 0.00 0.00 0.00 0.00 0.00 0.02 0.02 0.01 0.01 0.00 0.00 0.00 0.00 0.00 0.00 0.00 0.00 0.00 0.00 0.00 0.00 0.00 0.00 0.00 0.00 0.00 0.00 0.00 0.00 0.00 0.00 0.00 0.00 0.00 0.00 0.00
0.00 0.00 0.00 0.00 0.00 0.00 0.01 0.00 0.00 0.00 0.00 0.00 0.02 0.01 0.04 0.04 0.01 0.00 0.01 0.00 0.00 0.00 0.00 0.00 0.00 0.00 0.00 0.00 0.00 0.00 0.00 0.00 0.00 0.00 0.00 0.00 0.00 0.00 0.00 0.00 0.00 0.00 0.00 0.00 0.00
0.00 0.00 0.00 0.00 0.00 0.01 0.01 0.00 0.00 0.00 0.00 0.00 0.01 0.04 0.07 0.04 0.04 0.01 0.00 0.00 0.00 0.00 0.00 0.00 0.00 0.00 0.00 0.00 0.00 0.00 0.00 0.00 0.00 0.00 0.00 0.00 0.00 0.00 0.00 0.00 0.00 0.00 0.00 0.00 0.00
0.00 0.00 0.01 0.01 0.03 0.05 0.03 0.02 0.02 0.00 0.01 0.02 0.02 0.04 0.06 0.02 0.00 0.01 0.01 0.01 0.00 0.00 0.00 0.00 0.00 0.02 0.00 0.00 0.00 0.00 0.00 0.00 0.01 0.01 0.00 0.00 0.01 0.00 0.00 0.00 0.00 0.00 0.00 0.00 0.00
0.01 0.00 0.00 0.03 0.07 0.08 0.06 0.03 0.02 0.03 0.01 0.02 0.03 0.03 0.08 0.03 0.00 0.00 0.00 0.01 0.00 0.00 0.00 0.00 0.00 0.04 0.04 0.02 0.00 0.00 0.00 0.00 0.00 0.01 0.01 0.01 0.02 0.00 0.00 0.00 0.00 0.00 0.00 0.00 0.00
0.03 0.01 0.03 0.17 0.18 0.11 0.04 0.02 0.02 0.01 0.02 0.03 0.05 0.06 0.08 0.04 0.00 0.00 0.01 0.00 0.00 0.00 0.00 0.00 0.00 0.03 0.05 0.03 0.00 0.00 0.00 0.00 0.00 0.01 0.01 0.01 0.02 0.00 0.00 0.00 0.00 0.00 0.00 0.00 0.00
0.07 0.08 0.14 0.12 0.07 0.04 0.03 0.02 0.03 0.03 0.01 0.04 0.06 0.05 0.05 0.02 0.00 0.00 0.00 0.00 0.00 0.00 0.00 0.00 0.02 0.02 0.01 0.00 0.01 0.01 0.00 0.00 0.00 0.00 0.00 0.00 0.01 0.00 0.00 0.00 0.00 0.00 0.00 0.00 0.00
0.12 0.09 0.06 0.04 0.05 0.05 0.04 0.05 0.05 0.02 0.01 0.02 0.05 0.06 0.06 0.04 0.01 0.00 0.00 0.00 0.01 0.00 0.02 0.01 0.04 0.03 0.03 0.00 0.00 0.01 0.01 0.00 0.00 0.00 0.00 0.00 0.00 0.00 0.01 0.01 0.00 0.00 0.00 0.00 0.00
0.08 0.06 0.04 0.02 0.03 0.03 0.06 0.05 0.04 0.04 0.01 0.01 0.01 0.01 0.03 0.01 0.00 0.00 0.00 0.00 0.00 0.01 0.01 0.02 0.02 0.03 0.03 0.00 0.00 0.00 0.00 0.00 0.00 0.00 0.00 0.00 0.00 0.00 0.00 0.00 0.00 0.00 0.00 0.00 0.00
MSLP
1019.65 1019.37 1019.13 1018.87 1018.57 1018.31 1018.07 1017.79 1017.46 1017.22 1016.99 1016.74 1016.41 1016.04 1015.59 1015.14 1014.75 1013.78 1011.46 1009.55 1009.67 1010.05 1010.66 1009.35 1008.49 1007.93 1007.50 1006.18 1005.46 1005.09 1003.84 1001.53 1000.53 999.69 998.76 998.16 998.03 999.49 1000.08 999.49 999.89 999.73 999.72 999.54 1002.42
1019.51 1019.18 1018.88 1018.64 1018.39 1018.12 1017.81 1017.46 1017.13 1016.86 1016.61 1016.35 1016.20 1016.00 1015.61 1015.06 1013.71 1010.81 1008.19 1008.63 1009.39 1010.13 1010.00 1008.62 1007.27 1006.85 1006.23 1005.38 1004.76 1004.08 1002.80 1001.35 1001.09 1000.12 999.22 998.48 998.02 998.90 999.35 1000.11 1000.12 1000.45 1000.76 999.79 1000.61
1019.31 1018.91 1018.62 1018.36 1018.02 1017.70 1017.43 1017.18 1016.88 1016.54 1016.30 1016.10 1015.94 1015.75 1015.45 1014.83 1011.99 1006.60 1006.79 1007.77 1009.10 1009.76 1008.84 1007.37 1006.36 1005.96 1005.21 1004.36 1003.81 1003.52 1002.10 1001.74 1001.13 1000.35 1000.01 999.04 998.53 998.90 999.26 999.14 999.82 1000.18 1001.10 1000.91 1000.24
1019.03 1018.65 1018.31 1017.85 1017.51 1017.28 1017.01 1016.66 1016.39 1016.21 1016.01 1015.80 1015.65 1015.54 1015.28 1014.16 1009.32 1006.89 1007.95 1008.50 1009.13 1009.19 1008.60 1007.12 1006.21 1005.29 1004.48 1003.44 1003.23 1002.70 1002.22 1001.87 1001.34 1000.68 1000.50 999.95 999.77 999.15 999.10 998.58 999.26 1000.24 1002.03 1001.30 1001.70
1019.14 1018.77 1018.25 1017.92 1017.54 1017.14 1016.77 1016.38 1016.06 1015.73 1015.55 1015.50 1015.37 1015.22 1014.66 1011.88 1007.82 1007.48 1008.00 1008.74 1008.95 1008.45 1007.46 1006.32 1005.55 1004.67 1003.66 1003.03 1002.63 1002.09 1001.82 1001.50 1001.53 1001.35 1000.80 1000.57 1000.68 1000.33 999.69 999.23 999.37 1000.55 1002.46 1002.02 1002.00
1019.00 1018.54 1018.11 1017.68 1017.18 1016.80 1016.36 1016.04 1015.70 1015.39 1015.10 1014.95 1014.95 1014.97 1013.79 1010.07 1006.09 1005.29 1006.37 1007.92 1007.38 1007.33 1006.55 1005.57 1004.56 1004.11 1003.32 1002.72 1002.07 1001.88 1001.85 1001.63 1001.49 1001.24 1001.28 1001.03 1001.06 1001.00 1000.25 999.85 999.44 1000.37 1001.45 1001.97 1002.50
1018.64 1018.22 1017.75 1017.28 1016.86 1016.33 1015.91 1015.52 1015.18 1014.87 1014.51 1014.22 1014.10 1014.20 1012.26 1007.57 1005.58 1005.40 1005.68 1006.13 1006.09 1006.08 1005.42 1005.13 1004.43 1004.00 1003.64 1002.78 1002.54 1002.07 1001.71 1001.49 1001.55 1001.07 1001.11 1001.48 1000.99 1000.10 1000.24 1000.20 999.56 999.90 1000.50 1001.58 1002.25
1018.49 1017.97 1017.49 1016.96 1016.40 1015.98 1015.54 1015.00 1014.51 1014.05 1013.61 1013.34 1013.36 1013.21 1009.80 1005.63 1005.86 1005.50 1005.00 1005.11 1005.34 1005.41 1005.32 1004.89 1004.51 1004.05 1003.32 1002.83 1002.27 1002.03 1001.87 1000.81 1000.63 1000.99 1001.12 1001.42 999.05 999.90 1000.28 1000.17 999.68 999.74 1000.51 1000.79 1001.73
1018.14 1017.55 1017.01 1016.48 1016.04 1015.55 1014.93 1014.45 1013.87 1013.28 1012.81 1012.54 1012.45 1011.69 1006.76 1004.84 1004.97 1004.37 1004.50 1004.36 1004.90 1005.19 1005.32 1005.09 1004.56 1004.04 1003.33 1002.67 1001.73 1001.21 1000.25 1000.09 1000.00 1000.01 1000.46 1000.50 999.50 999.78 999.37 999.31 999.36 999.68 999.87 1000.54 1000.80
1017.92 1017.31 1016.87 1016.41 1015.96 1015.20 1014.70 1013.90 1012.66 1012.74 1012.49 1011.86 1011.20 1010.93 1005.81 1002.91 1002.72 1003.39 1003.81 1004.26 1004.36 1004.67 1004.80 1004.45 1004.07 1003.14 1002.17 1001.36 999.94 999.38 999.50 999.62 999.15 999.21 999.46 999.17 998.85 999.40 999.23 999.22 998.97 998.97 999.40 999.64 1000.07
1017.58 1017.01 1016.51 1015.99 1015.40 1014.94 1014.13 1012.17 1011.23 1011.54 1010.91 1008.15 1006.13 1004.89 1002.02 1001.87 1001.78 1002.21 1002.82 1003.23 1003.82 1003.85 1002.95 1003.27 1002.68 1001.02 1000.25 1000.20 999.92 999.21 998.98 998.60 998.58 998.49 998.52 998.27 998.22 998.59 998.62 998.90 998.50 997.92 998.18 998.69 999.31
1017.01 1016.41 1015.82 1015.24 1014.55 1014.34 1013.95 1011.33 1008.36 1007.64 1006.33 1005.66 1004.73 1003.35 1002.41 1001.47 1001.11 1001.18 1002.37 1002.40 1002.24 1001.82 1001.86 1001.83 1000.53 999.74 999.79 999.80 1000.01 999.62 999.07 998.66 998.47 998.19 998.16 998.01 997.77 997.81 997.97 997.74 997.68 997.55 998.06 998.33 998.86
1016.34 1015.48 1014.80 1014.06 1013.44 1012.55 1011.38 1009.81 1008.34 1008.10 1005.86 1002.56 1001.12 1000.84 1000.51 1001.04 1000.00 999.77 1001.01 1000.88 1000.57 1000.49 1000.13 999.20 998.85 999.41 999.10 999.20 999.41 999.30 999.02 998.85 998.45 997.98 998.02 997.53 996.97 996.68 997.02 997.10 996.90 997.01 997.74 997.98 998.21
1016.14 1015.62 1015.05 1014.18 1012.44 1010.35 1009.06 1007.92 1007.54 1007.44 1004.49 999.12 997.30 997.41 998.38 999.54 998.99 998.39 999.68 999.99 999.47 998.95 998.87 998.49 998.11 998.17 998.50 998.66 998.89 998.53 999.09 999.16 998.82 998.45 997.39 997.81 996.48 995.91 996.18 996.06 996.00 996.22 996.59 997.18 997.82
1016.01 1015.46 1014.95 1014.64 1012.96 1010.27 1008.18 1007.68 1007.77 1007.37 1002.73 996.25 995.45 996.25 996.80 997.71 996.56 997.90 998.77 998.96 998.02 998.01 998.12 997.33 997.46 997.39 997.69 997.98 998.39 998.26 998.36 998.51 998.81 998.60 998.30 997.58 998.12 996.70 996.36 995.66 995.45 995.70 996.36 996.91 997.45
1015.29 1014.75 1014.28 1012.71 1010.99 1009.37 1009.06 1008.24 1007.88 1006.04 1000.30 996.44 995.14 995.79 996.10 996.84 997.02 996.35 997.68 998.75 997.99 997.28 997.22 996.92 997.13 996.98 996.99 997.65 997.99 998.33 998.26 998.25 998.38 998.21 997.78 997.19 998.39 998.08 997.83 997.22 995.37 995.59 996.19 996.88 997.32
1014.17 1013.52 1013.17 1012.15 1009.18 1007.16 1007.45 1007.94 1005.79 1002.19 998.77 995.75 995.15 994.99 995.36 995.70 996.46 996.00 996.87 997.50 996.93 996.66 996.12 996.70 995.98 996.45 996.63 996.77 997.40 997.73 997.75 997.57 997.82 997.17 996.87 996.80 997.58 997.34 999.33 999.37 995.60 995.64 997.53 998.66 999.01
1013.35 1011.92 1010.25 1008.62 1008.37 1008.41 1007.18 1006.33 1002.90 999.57 998.04 996.41 995.33 995.94 996.40 995.42 996.09 996.23 996.72 996.54 997.03 996.11 995.16 995.32 995.71 995.56 996.07 996.26 995.97 996.50 996.77 996.26 996.21 996.10 995.97 996.20 996.78 996.69 997.89 998.35 997.83 997.96 998.85 999.63 1000.11
1012.61 1009.26 1007.75 1006.11 1006.49 1007.52 1006.99 1003.82 1000.58 999.06 997.91 996.38 995.60 995.28 995.28 996.47 998.43 998.90 997.11 996.10 995.90 995.70 995.05 994.84 994.54 995.22 995.80 996.05 995.79 995.85 996.03 995.95 996.03 997.45 997.16 996.87 996.78 997.52 997.65 998.32 998.47 999.06 999.88 1000.70 1001.39
1012.18 1008.82 1005.23 1005.09 1006.78 1007.34 1006.19 1002.33 1000.07 998.49 997.39 996.97 996.72 996.93 997.21 997.22 999.58 1000.91 1000.55 997.85 996.16 995.67 995.13 995.39 995.28 995.02 995.66 996.17 996.16 995.95 996.79 996.64 996.34 997.49 997.55 997.41 997.54 996.02 996.92 997.68 998.61 999.51 1000.22 1001.33 1002.07
1011.42 1007.70 1005.47 1006.04 1007.50 1007.28 1004.49 1000.93 999.03 997.77 997.43 997.12 996.65 997.82 998.69 999.12 1000.16 1000.93 1000.69 998.76 996.16 995.08 995.38 996.30 996.31 995.82 995.67 995.69 995.84 996.07 996.79 997.87 997.26 996.90 997.31 998.00 998.57 999.43 997.87 996.77 998.09 999.31 1000.55 1001.53 1002.44
1011.74 1007.73 1005.14 1006.44 1007.06 1005.68 1003.14 1000.96 1000.85 998.49 997.83 998.14 997.80 997.94 998.97 1000.05 1000.62 1001.28 1000.63 999.88 997.55 994.53 994.82 995.72 995.80 996.23 996.06 996.17 996.53 995.91 996.28 998.05 998.01 998.72 998.59 998.29 998.04 999.24 999.74 997.24 998.30 999.46 1000.68 1001.84 1002.62
1011.64 1007.46 1003.96 1004.52 1005.33 1003.68 1002.90 1001.66 1000.23 999.96 998.68 998.50 998.15 998.04 999.01 1000.17 1001.14 1000.84 1000.39 998.96 997.77 995.49 994.18 995.13 995.54 996.91 998.07 999.29 997.47 996.94 997.26 997.64 998.79 999.42 1000.10 1000.25 999.61 999.07 999.28 998.80 999.58 1000.35 1001.52 1002.58 1003.22
1012.28 1007.61 1004.20 1004.83 1004.96 1004.66 1003.53 1001.55 1000.45 999.55 999.32 999.22 999.07 999.35 999.09 1000.48 1000.86 1000.80 1000.48 999.57 997.74 995.49 994.07 995.03 995.80 996.52 997.29 997.07 997.34 997.42 997.32 998.00 999.12 1000.49 1001.10 1001.18 1001.53 1001.10 1000.21 1000.17 1000.60 1001.39 1002.13 1002.84 1003.55
1012.74 1009.50 1008.77 1006.63 1005.57 1004.63 1003.53 1001.68 1000.51 1000.43 999.67 1000.05 999.72 999.25 999.90 1000.60 1001.07 1001.45 1001.63 1000.99 998.25 995.77 994.64 995.69 996.25 996.66 998.72 998.27 998.28 998.11 997.56 998.27 998.61 999.34 1000.07 999.99 1000.76 1001.67 1001.49 1002.04 1002.42 1002.19 1002.64 1003.31 1003.90
1012.77 1011.68 1010.70 1008.94 1006.78 1005.58 1003.73 1002.25 1001.67 1001.60 1001.46 1001.19 1000.73 1000.41 1000.41 1001.43 1000.92 1001.61 1002.05 1000.96 997.61 996.19 995.96 996.47 996.82 997.32 998.40 998.75 998.83 999.49 998.07 998.21 998.54 998.89 999.07 999.47 1000.28 1001.25 1002.41 1002.23 1002.66 1003.04 1003.41 1003.91 1004.75
1012.99 1012.62 1012.04 1010.03 1008.15 1007.25 1005.64 1004.41 1003.13 1002.86 1003.09 1003.13 1002.27 1001.48 1001.95 1002.45 1001.80 1001.41 1001.42 1001.15 999.75 997.54 997.31 996.23 996.38 997.64 998.28 998.80 998.73 998.65 998.03 998.04 998.36 999.00 999.28 999.68 1000.11 1000.44 1001.74 1002.38 1002.80 1003.50 1004.32 1005.21 1006.10
Thickness
5660 5659 5658 5658 5658 5658 5657 5657 5657 5655 5654 5654 5653 5654 5655 5655 5658 5665 5678 5696 5695 5693 5691 5703 5710 5715 5720 5726 5738 5741 5721 5731 5750 5764 5784 5815 5805 5800 5814 5808 5811 5822 5825 5840 5803
5659 5659 5658 5657 5656 5655 5655 5655 5654 5654 5653 5651 5650 5648 5649 5651 5660 5678 5702 5697 5691 5685 5685 5693 5700 5709 5709 5718 5728 5724 5720 5738 5760 5771 5776 5797 5805 5797 5795 5786 5792 5803 5817 5838 5831
5657 5658 5657 5656 5655 5654 5653 5652 5652 5651 5650 5648 5646 5644 5644 5646 5666 5707 5706 5697 5686 5681 5688 5700 5708 5706 5704 5719 5723 5722 5721 5743 5750 5764 5772 5780 5787 5795 5785 5779 5792 5793 5789 5812 5823
5655 5655 5654 5655 5654 5652 5651 5650 5649 5648 5646 5644 5643 5640 5638 5646 5670 5701 5690 5684 5678 5678 5681 5690 5694 5694 5697 5705 5720 5709 5729 5735 5741 5754 5756 5759 5772 5773 5782 5797 5809 5795 5788 5806 5804
5649 5648 5648 5648 5648 5647 5646 5646 5646 5644 5643 5640 5638 5636 5639 5655 5676 5690 5684 5675 5673 5677 5680 5685 5686 5692 5691 5705 5713 5711 5722 5730 5733 5738 5745 5752 5747 5754 5768 5793 5800 5787 5774 5789 5792
5644 5644 5644 5644 5644 5643 5643 5643 5642 5640 5640 5638 5635 5631 5637 5650 5694 5698 5689 5673 5678 5676 5680 5688 5691 5699 5698 5701 5706 5715 5714 5716 5722 5726 5730 5728 5731 5739 5758 5781 5785 5774 5769 5780 5779
5640 5639 5639 5639 5639 5640 5639 5638 5637 5636 5635 5634 5632 5628 5639 5668 5691 5689 5687 5680 5682 5679 5678 5687 5694 5690 5693 5690 5705 5706 5696 5705 5708 5716 5715 5720 5705 5728 5753 5764 5766 5765 5767 5772 5773
5633 5633 5632 5633 5633 5632 5631 5631 5631 5631 5631 5630 5627 5624 5645 5683 5680 5680 5683 5679 5680 5680 5677 5683 5688 5685 5687 5697 5694 5686 5687 5681 5704 5704 5706 5699 5705 5729 5742 5743 5748 5755 5753 5762 5761
5627 5627 5626 5626 5624 5624 5625 5624 5624 5626 5627 5624 5623 5623 5658 5680 5670 5678 5679 5671 5670 5669 5669 5673 5674 5670 5678 5671 5673 5681 5674 5680 5688 5705 5696 5696 5697 5717 5735 5732 5734 5740 5748 5752 5753
5615 5615 5615 5614 5612 5615 5613 5616 5622 5618 5617 5617 5619 5612 5651 5672 5678 5674 5673 5668 5660 5656 5652 5657 5658 5659 5669 5670 5664 5679 5678 5681 5682 5699 5696 5694 5697 5702 5716 5716 5723 5736 5742 5745 5748
5606 5605 5604 5603 5602 5602 5603 5614 5623 5609 5611 5634 5647 5650 5672 5676 5680 5668 5667 5660 5653 5648 5646 5652 5646 5654 5675 5681 5685 5689 5684 5686 5691 5705 5694 5692 5692 5695 5707 5705 5714 5734 5740 5742 5744
5601 5600 5597 5595 5595 5590 5589 5605 5623 5624 5628 5637 5638 5647 5654 5665 5654 5660 5659 5646 5646 5642 5651 5644 5646 5678 5681 5678 5671 5673 5672 5676 5689 5699 5694 5690 5687 5698 5701 5706 5714 5723 5723 5732 5736
5595 5595 5593 5593 5589 5592 5593 5601 5610 5605 5608 5640 5653 5647 5650 5646 5650 5652 5653 5652 5648 5643 5647 5653 5667 5672 5670 5667 5662 5667 5666 5669 5674 5692 5694 5694 5687 5697 5702 5705 5715 5720 5720 5728 5732
5578 5576 5573 5574 5584 5595 5595 5601 5598 5593 5595 5644 5656 5656 5652 5644 5636 5662 5659 5648 5648 5645 5653 5655 5673 5664 5662 5659 5666 5657 5674 5669 5669 5671 5669 5687 5669 5696 5700 5703 5710 5719 5723 5724 5727
5560 5557 5554 5551 5561 5575 5588 5587 5580 5572 5574 5655 5651 5661 5650 5635 5654 5641 5653 5645 5643 5647 5651 5650 5657 5658 5654 5661 5669 5664 5680 5675 5669 5666 5670 5677 5651 5677 5698 5701 5711 5718 5719 5722 5725
5546 5544 5543 5549 5560 5566 5562 5565 5559 5554 5567 5629 5646 5633 5632 5632 5634 5648 5637 5639 5651 5649 5652 5657 5669 5666 5666 5669 5670 5675 5671 5674 5676 5674 5654 5677 5651 5651 5664 5676 5716 5721 5722 5717 5721
5539 5537 5535 5537 5555 5567 5559 5545 5551 5556 5611 5624 5628 5634 5632 5628 5627 5640 5628 5622 5627 5623 5633 5645 5657 5665 5670 5660 5669 5666 5661 5647 5641 5655 5655 5692 5666 5676 5652 5655 5706 5710 5702 5699 5701
5531 5533 5538 5548 5543 5537 5541 5536 5545 5585 5591 5619 5627 5618 5596 5621 5629 5633 5625 5623 5630 5640 5645 5634 5627 5656 5665 5661 5667 5667 5668 5660 5642 5656 5674 5696 5667 5685 5676 5669 5690 5696 5693 5690 5689
5520 5541 5542 5548 5539 5526 5524 5537 5562 5575 5588 5602 5617 5613 5623 5616 5592 5583 5606 5631 5638 5643 5635 5639 5647 5667 5663 5668 5677 5669 5660 5689 5672 5659 5657 5674 5688 5685 5685 5675 5682 5681 5680 5674 5674
5507 5526 5545 5537 5519 5509 5512 5540 5560 5578 5588 5590 5579 5593 5589 5607 5576 5554 5563 5611 5628 5644 5657 5643 5629 5658 5659 5662 5667 5667 5673 5655 5671 5627 5627 5653 5652 5688 5681 5675 5675 5671 5671 5667 5667
5493 5510 5522 5513 5497 5491 5516 5547 5564 5582 5583 5579 5584 5574 5567 5577 5569 5559 5559 5597 5636 5647 5649 5632 5628 5636 5653 5643 5647 5657 5645 5645 5666 5674 5652 5632 5637 5655 5669 5686 5675 5671 5666 5664 5660
5469 5490 5501 5496 5479 5494 5521 5541 5530 5563 5571 5562 5571 5576 5568 5561 5560 5552 5561 5571 5601 5654 5636 5640 5633 5619 5637 5654 5658 5667 5660 5639 5639 5629 5652 5660 5664 5660 5633 5681 5673 5667 5662 5658 5656
5446 5478 5500 5494 5482 5511 5515 5522 5540 5537 5554 5558 5566 5576 5561 5552 5550 5561 5569 5585 5604 5627 5641 5642 5631 5603 5603 5596 5637 5640 5649 5651 5636 5637 5617 5618 5637 5668 5655 5663 5661 5655 5650 5645 5643
5421 5460 5489 5487 5488 5491 5498 5522 5530 5547 5547 5553 5554 5560 5567 5551 5555 5561 5565 5576 5598 5629 5650 5644 5631 5620 5616 5627 5635 5628 5640 5643 5631 5592 5606 5607 5603 5625 5645 5645 5644 5643 5642 5639 5635
5410 5444 5442 5464 5476 5486 5501 5522 5530 5527 5545 5541 5550 5560 5557 5550 5552 5544 5542 5557 5591 5619 5640 5630 5615 5628 5599 5620 5621 5622 5635 5631 5629 5632 5616 5632 5620 5615 5627 5621 5626 5632 5634 5627 5625
5404 5410 5416 5442 5467 5477 5499 5516 5519 5521 5525 5529 5532 5545 5549 5534 5554 5541 5534 5552 5598 5620 5621 5620 5609 5619 5602 5614 5611 5589 5626 5631 5632 5634 5637 5635 5625 5628 5618 5627 5623 5622 5621 5617 5611
5406 5405 5405 5429 5450 5459 5474 5490 5506 5510 5509 5507 5520 5537 5530 5527 5540 5548 5549 5553 5571 5601 5602 5603 5615 5606 5596 5610 5615 5607 5623 5628 5630 5630 5631 5622 5631 5638 5625 5622 5620 5617 5612 5604 5598